RH
25 25 25 25 25 25 26 27 29 32 33 31 30 31 32 33 35 38 39 42 44 45 46 45 43 42 40 37 35 34 36 36 33 33 35 37 41 43 47 53 52 49
27 26 27 28 28 28 28 28 29 32 33 32 30 32 35 36 37 39 42 44 44 44 44 43 40 38 35 33 32 32 33 33 31 31 34 37 41 44 46 51 52 50
29 28 28 28 28 27 27 28 30 32 33 32 30 33 37 38 38 40 42 44 43 41 41 39 35 31 29 29 29 29 30 33 33 32 34 37 41 44 45 49 52 52
31 29 28 27 25 24 26 28 30 31 31 32 32 34 38 39 40 42 43 43 41 38 37 36 31 26 25 26 27 29 32 35 35 35 35 36 40 44 45 46 50 52
31 29 26 24 24 25 27 27 27 27 29 31 33 34 38 41 43 43 42 40 38 36 35 34 30 26 25 27 30 33 35 37 38 38 39 40 41 44 46 46 47 47
31 29 27 26 26 26 26 26 25 26 28 31 33 34 39 42 44 43 41 38 36 36 34 32 31 28 27 29 32 35 36 38 40 40 42 44 44 45 47 47 46 45
31 31 30 28 27 27 26 26 26 27 29 31 31 34 40 43 42 41 39 37 36 36 34 31 29 29 29 30 33 36 37 39 41 43 45 46 45 45 46 46 46 44
31 32 31 29 28 28 27 27 26 28 30 31 32 36 40 41 41 39 37 37 37 36 34 32 30 31 32 31 33 36 37 38 41 44 47 49 48 46 44 43 44 43
31 32 31 31 30 30 29 27 27 28 30 32 34 37 39 40 39 37 36 36 37 36 36 35 34 34 35 34 34 37 37 38 40 42 44 47 48 47 44 40 41 44
31 32 32 32 32 31 29 27 27 29 31 33 35 37 37 38 38 37 37 37 37 38 38 39 38 38 38 37 37 36 36 36 37 38 40 44 47 48 44 39 39 44
33 32 32 32 33 31 29 27 29 31 32 33 35 36 36 37 37 38 39 39 40 41 42 41 40 41 42 42 40 37 36 37 38 39 42 45 50 51 46 40 38 42
34 34 34 33 33 31 29 28 30 32 33 34 35 36 36 37 38 39 40 41 43 44 45 45 44 46 48 48 48 45 43 43 43 45 46 48 54 55 48 41 38 41
34 35 34 33 32 31 29 30 32 33 33 34 35 36 37 37 38 40 42 44 46 48 49 50 50 53 55 56 56 54 51 49 48 49 51 54 58 58 51 43 40 41
33 34 33 32 31 31 31 32 33 33 34 35 36 37 38 37 38 41 44 47 49 51 52 53 54 57 59 60 61 60 57 54 52 53 57 60 64 62 54 45 41 43
33 33 32 31 30 31 32 32 32 33 34 36 39 39 39 39 40 43 46 48 51 53 54 54 55 56 58 61 64 65 63 61 60 59 58 58 58 60 57 49 42 44
35 34 32 31 30 30 31 32 32 34 37 39 41 41 40 42 43 45 47 49 51 52 53 54 54 55 57 59 63 66 66 65 64 61 58 54 52 53 57 53 46 45
36 36 34 32 31 32 32 32 33 36 40 42 42 42 42 44 46 47 48 50 52 53 53 54 54 56 56 57 60 64 65 66 64 62 59 55 50 49 52 52 49 48
37 38 37 35 33 34 33 33 36 40 43 44 42 43 44 45 46 48 49 51 52 54 54 54 56 57 56 57 58 61 62 63 63 63 61 56 50 47 48 51 50 51
37 39 40 37 35 34 35 37 39 43 45 44 43 43 44 45 47 48 50 51 52 53 53 54 57 57 56 57 58 59 60 59 61 64 64 60 53 47 47 50 50 51
38 39 40 39 36 36 38 40 41 44 45 44 44 45 45 46 47 49 50 51 51 51 52 54 55 54 55 57 58 58 57 56 60 67 68 64 57 50 47 46 46 49
37 38 39 40 38 38 39 40 41 44 45 45 45 45 45 46 47 48 49 50 50 50 52 54 54 54 56 59 60 60 58 56 60 67 69 65 60 55 49 45 45 49
36 37 39 41 40 39 40 39 40 42 45 46 46 46 46 46 47 48 49 49 50 52 54 56 55 56 58 61 61 61 60 60 62 65 67 64 60 57 51 45 45 49
36 37 40 42 41 39 38 37 38 41 45 47 47 47 46 46 46 47 49 50 53 56 58 57 56 57 59 62 63 62 62 62 63 65 65 63 59 57 54 48 45 47
37 37 39 40 40 37 36 37 37 40 44 46 47 47 45 44 46 48 50 53 55 58 57 56 55 56 59 63 64 65 65 65 67 69 68 62 56 54 55 50 43 44
38 38 38 39 39 37 36 38 38 40 43 45 46 47 46 47 48 50 52 54 55 56 56 54 54 57 61 63 64 66 66 65 68 70 65 56 52 51 52 48 41 43
38 38 38 39 39 38 38 40 41 42 44 45 47 48 49 51 52 53 53 54 54 55 54 53 54 57 61 62 63 66 67 64 65 65 59 52 49 49 48 44 40 43